Weather Roundup
Issued by NWS Chicago, IL

Home | Current Version | Previous Version | Graphics & Text | Print | Product List | Glossary On
Versions: 1 2 3 4 5 6 7 8 9 10 11 12 13 14 15 16 17 18 19 20 21 22 23 24 25 26 27 28 29 30 31 32 33 34 35 36 37 38 39 40 41 42 43 44 45 46 47 48 49 50
000
NZUS59 KLOT 071612
HRRLOT

CHICAGO AREA WEATHER ROUNDUP
NATIONAL WEATHER SERVICE CHICAGO/ROMEOVILLE IL
1000 AM CST WED DEC 07 2016

NOTE: "FAIR" INDICATES FEW OR NO CLOUDS BELOW 12,000 FEET WITH NO
SIGNIFICANT WEATHER AND/OR OBSTRUCTIONS TO VISIBILITY.

* THESE STATIONS ARE NOT UNDER NWS QUALITY CONTROL. THEY ALSO MAY NOT
  REPORT WEATHER SUCH AS PRECIPITATION OR FOG.

ILZ005-006-012>014-019>023-071700-
NORTHEAST ILLINOIS

CITY           SKY/WX    TMP DP  RH WIND       PRES   REMARKS
OHARE          PTSUNNY   25  17  72 W12G21    30.10R WCI  14
MIDWAY         PTSUNNY   27  16  63 W13       30.12R WCI  16
AURORA         MOSUNNY   24  17  74 W16       30.13R WCI  11
LANSING*       SUNNY     28  21  75 W9        30.13R WCI  19
JOLIET*        PTSUNNY   28  19  71 W12G17    30.15R WCI  17
WAUKEGAN       MOSUNNY   26  17  68 W9G18     30.05R WCI  17
DUPAGE AIRPORT MOSUNNY   24  15  68 W14       30.11R WCI  12
WHEELING       MOSUNNY   25  16  68 W13       30.11R WCI  14
KANKAKEE*      CLOUDY    29  21  72 W12G18    30.16R WCI  19
MORRIS*        MOSUNNY   26  19  75 W15       30.15R WCI  14
LEWIS AIRPORT* MOSUNNY   26  22  85 W12       30.14R WCI  15
NORTHERLY ISL    N/A     27  17  66 SW12        N/A  WCI  17
$$

WIZ051-052-058>065-066-070>072-071700-
SOUTHEAST WISCONSIN

CITY           SKY/WX    TMP DP  RH WIND       PRES   REMARKS
MILWAUKEE      PTSUNNY   25  15  66 W15       30.02R WCI  13
KENOSHA*       MOSUNNY   24  17  74 W17G23    30.05R WCI  11
RACINE*        PTSUNNY   24  15  68 W13       30.05R WCI  12
BURLINGTON     MOSUNNY   24  17  75 W10G22    30.05R WCI  13
WAUKESHA       SUNNY     21  16  79 SW14      30.02R WCI   8
WEST BEND      MOSUNNY   23  18  80 W13G21    29.99S WCI  11
$$

INZ001>003-010>013-019-020-071700-
NORTHWEST INDIANA

CITY           SKY/WX    TMP DP  RH WIND       PRES   REMARKS
GARY*          PTSUNNY   30  19  64 W12G23    30.13R WCI  21
MICHIGAN CITY* NOT AVBL
RENSSELAER*    NOT AVBL
VALPARAISO     PTSUNNY   29  19  66 W13       30.12R WCI  19
$$

LMZ740>746-071700-
SOUTHERN LAKE MICHIGAN

STATION/POSITION TIME  SKY/WX   TEMP WIND        PRES    VSBY
                                AIR  DIR/SP/G
                 (UTC)          (F)  (DEG/KT/KT) (MB)    (MI)
HARRISON CRIB    1540            27  250/ 12/ 15   N/A
BURNHAM HARBOR   1600            28  260/  6/ 13   N/A
CALUMET HARBOR   1542            27  260/  9/ 13 1019.0R
BURNS HARBOR     1540            30  240/ 15/ 21 1020.0R
MICHIGAN CITY    1540            30  230/ 21/ 25   N/A
$$

ABBREVIATIONS USED IN REMARKS
   TC - TEMPERATURE IN CELSIUS
  WCI - WIND CHILL INDEX
   HX - HEAT INDEX
  VSB - VISIBILITY
$$




USA.gov is the U.S. government's official web portal to all federal, state and local government web resources and services.